UAL29 KSFO-WSSS

Flight info

Callsign UAL29
Flight time N/A
Altitude 32000
Route GNNRR3 AMAKR DCT REDWD DCT UNVER DCT 42N130W 46N140W/N0490F340 50N150W 51N160W 50N170W 46N180E/N0495F360 38N170E 33N160E 28N150E/N0488F380 23N140E 19N130E DCT OMDOB/N0484F400 DCT JOM M767 TOMAN KARTO2B
Aircraft B789/H-SDE1E2E3FGHIJ2J3J4J5M1RWXY/LB1D1

Departure

Time N/A
Airport San Francisco International Airport (KSFO)

Arrival

Time 2026-05-04 20:02
Airport Singapore Changi Airport (WSSS)
Time Latitude Longitude Altitude Speed Heading
2026-05-04 19:52 1.24594 104.31698 8373 ft 318 kts 332°
2026-05-04 19:52 1.26588 104.30685 7963 ft 326 kts 332°
2026-05-04 19:52 1.28575 104.29655 7545 ft 318 kts 332°
2026-05-04 19:52 1.30512 104.28625 7121 ft 312 kts 332°
2026-05-04 19:53 1.32403 104.27623 6709 ft 304 kts 332°
2026-05-04 19:53 1.34253 104.26652 6287 ft 297 kts 332°
2026-05-04 19:53 1.36067 104.25700 5871 ft 290 kts 332°
2026-05-04 19:53 1.37818 104.24779 5595 ft 279 kts 332°
2026-05-04 19:54 1.39504 104.23891 5304 ft 269 kts 332°
2026-05-04 19:54 1.41133 104.23034 5023 ft 260 kts 332°
2026-05-04 19:54 1.42714 104.22201 4778 ft 255 kts 332°
2026-05-04 19:54 1.44282 104.21376 4548 ft 256 kts 332°
2026-05-04 19:55 1.45859 104.20546 4316 ft 256 kts 332°
2026-05-04 19:55 1.47438 104.19715 4090 ft 256 kts 332°
2026-05-04 19:55 1.49015 104.18885 3862 ft 256 kts 332°
2026-05-04 19:55 1.50585 104.18052 3655 ft 255 kts 330°
2026-05-04 19:56 1.51862 104.16859 3405 ft 254 kts 301°
2026-05-04 19:56 1.52405 104.15199 3182 ft 253 kts 274°
2026-05-04 19:56 1.52513 104.13443 2991 ft 253 kts 274°
2026-05-04 19:56 1.52628 104.11702 2996 ft 252 kts 274°
2026-05-04 19:57 1.52739 104.09943 2998 ft 253 kts 274°
2026-05-04 19:57 1.52845 104.08259 3016 ft 235 kts 273°
2026-05-04 19:57 1.52580 104.06729 2983 ft 218 kts 244°
2026-05-04 19:57 1.51732 104.05492 2994 ft 216 kts 230°
2026-05-04 19:58 1.50640 104.04459 2754 ft 215 kts 217°
2026-05-04 19:58 1.49342 104.03755 2484 ft 210 kts 203°
2026-05-04 19:58 1.48009 104.03245 2213 ft 197 kts 200°
2026-05-04 19:58 1.46810 104.02773 1972 ft 173 kts 202°
2026-05-04 19:59 1.45769 104.02334 1742 ft 156 kts 202°
2026-05-04 19:59 1.44783 104.01919 1533 ft 152 kts 202°
2026-05-04 19:59 1.43816 104.01510 1340 ft 151 kts 202°
2026-05-04 19:59 1.42847 104.01102 1136 ft 151 kts 202°
2026-05-04 20:00 1.41881 104.00695 944 ft 151 kts 202°
2026-05-04 20:00 1.40915 104.00289 755 ft 150 kts 202°
2026-05-04 20:00 1.39952 103.99883 546 ft 151 kts 203°
2026-05-04 20:00 1.38988 103.99477 357 ft 150 kts 203°
2026-05-04 20:01 1.38028 103.99070 149 ft 150 kts 203°
2026-05-04 20:01 1.37123 103.98685 39 ft 131 kts 203°
2026-05-04 20:01 1.36438 103.98398 36 ft 83 kts 203°
2026-05-04 20:01 1.35974 103.98202 36 ft 67 kts 203°
2026-05-04 20:02 1.35569 103.98030 36 ft 59 kts 203°
2026-05-04 20:02 1.35229 103.97886 36 ft 39 kts 203°
2026-05-04 20:02 1.35034 103.97825 36 ft 21 kts 165°
2026-05-04 20:02 1.34940 103.97945 36 ft 17 kts 150°
2026-05-04 20:03 1.34847 103.97942 36 ft 16 kts 156°
2026-05-04 20:03 1.34779 103.98057 37 ft 24 kts 111°
2026-05-04 20:03 1.34700 103.98242 40 ft 32 kts 113°
2026-05-04 20:03 1.34610 103.98455 52 ft 34 kts 112°
2026-05-04 20:04 1.34533 103.98633 37 ft 21 kts 110°
2026-05-04 20:04 1.34592 103.98723 36 ft 20 kts 25°
2026-05-04 20:04 1.34746 103.98788 36 ft 26 kts 23°
2026-05-04 20:04 1.34915 103.98859 36 ft 26 kts 22°
2026-05-04 20:05 1.35063 103.98925 36 ft 14 kts 39°
2026-05-04 20:05 1.35084 103.99006 36 ft 12 kts 83°
2026-05-04 20:05 1.35087 103.99039 36 ft 0 kts 84°